User: anonymous   Login
Location: Fort Wayne
(41.1310°N, 85.1290°W)
Time: 14:38:40
(UTC-04:00)
Language:

CZ-2C R/B - Orbit

View from above orbital plane
View from above orbital plane
View from above satellite
View from above satellite

Ground track
Ground track

The orbit data is extracted from the following two-line orbital elements,

1 36089U 09061B   16178.07044696  .00000019  00000-0  15768-4 0  9992
2 36089  98.0509 189.7705 0083363  62.9548   2.8042 14.49582841350115
Epoch (UTC): 26 June 2016 01:41:26
Eccentricity: 0.0083363
inclination: 98.0509°
perigee height: 668 km
apogee height: 786 km
right ascension of ascending node: 189.7705°
argument of perigee: 62.9548°
revolutions per day: 14.49582841
mean anomaly at epoch: 2.8042°
orbit number at epoch: 35011

The dashed part of the orbit path shows where the satellite is in the earth's shadow,  

DLR